Regional Weather Roundup
Issued by NWS

Home | Current Version | Previous Version | Graphics & Text | Print | Product List | Glossary Off
Versions: 1 2 3 4 5 6 7 8 9 10 11 12 13 14 15 16 17 18 19 20 21 22 23 24 25 26 27 28 29 30 31 32 33 34 35 36 37 38 39 40 41 42 43 44 45 46 47 48 49 50

000
ASUS43 KTOP 221008
RWRKS

WEATHER ROUNDUP FOR KANSAS
NATIONAL WEATHER SERVICE GOODLAND KS
500 AM CDT SUN APR 22 2018

NOTE:  "FAIR" INDICATES FEW OR NO CLOUDS BELOW 12,000 FEET WITH NO
SIGNIFICANT WEATHER AND/OR OBSTRUCTIONS TO VISIBILITY.

KSZ001>006-013>018-027>032-041>047-221100-
NORTHWEST KANSAS

CITY           SKY/WX    TMP DP  RH WIND       PRES   REMARKS
GOODLAND       CLOUDY    38  37  97 CALM      30.21R FOG
HAYS           CLOUDY    42  40  92 NW12      30.19F
HILL CITY      CLOUDY    42  41  96 N7        30.22S FOG
RUSSELL        CLOUDY    43  43 100 NW12      30.16S FOG
$$

KSZ061>065-074>080-084>089-221100-
SOUTHWEST KANSAS

CITY           SKY/WX    TMP DP  RH WIND       PRES   REMARKS
DODGE CITY     CLOUDY    41  39  93 N8        30.19R FOG
ELKHART        CLOUDY    42  42  99 N5        30.20F
GARDEN CITY    CLEAR     36  36 100 N9        30.19S
GREAT BEND     CLOUDY    42  41  96 NW12      30.17R
LIBERAL        PTCLDY    36  35  96 NW7       30.21S
PRATT          CLOUDY    42  40  91 NW13      30.15S
$$

KSZ066>073-081>083-090>101-221100-
SOUTHEAST KANSAS

CITY           SKY/WX    TMP DP  RH WIND       PRES   REMARKS
CHANUTE        CLOUDY    49  46  90 N8        30.01F
COFFEYVILLE    CLOUDY    49  47  93 N8        29.98F
HUTCHINSON     CLOUDY    44  42  93 NW12      30.12R
MEDICINE LODGE   N/A     44  41  89 N12G20    30.13F
NEWTON         CLOUDY    43  41  93 N15       30.08F
PARSONS        CLOUDY    49  48  97 VRB5      30.00F
WICHITA INTL   LGT RAIN  45  44  97 NW16      30.08S
WICHITA JABRA  LGT RAIN  44  44 100 NW14      30.07S
WICHITA MCCONL LGT RAIN  44  44  99 N14       30.07S
WINFIELD       CLOUDY    45  45 100 NW12      30.07R
$$

KSZ007>012-019>026-033>040-048>060-102>105-221100-
NORTHEAST KANSAS

CITY           SKY/WX    TMP DP  RH WIND       PRES   REMARKS
CONCORDIA      CLOUDY    40  37  89 NW8       30.15S
EMPORIA        CLOUDY    46  39  76 N7        30.05S
LAWRENCE       CLOUDY    53  33  46 NE13      30.08S
MANHATTAN      CLOUDY    46  39  76 CALM      30.10F
MARYSVILLE     CLOUDY    43  36  75 N9        30.13F
OLATHE IND     CLOUDY    52  35  52 NE12      30.08S
OLATHE EXE     LGT RAIN  51  36  56 NE10      30.07S
SALINA         CLOUDY    44  42  93 NW10      30.13F
TOPEKA BILLARD CLOUDY    50  38  63 N7        30.08F
TOPEKA FORBES  CLOUDY    51  36  56 N7        30.07F
$$



USA.gov is the U.S. government's official web portal to all federal, state and local government web resources and services.